[[[{"header":{"parameterUnit":"kt","parameterCategory":2,"dx":1,"dy":1,"la1":30.253999710083008,"la2":30.299108505249023,"lo1":-89.0895004272461,"lo2":-89.04439544677734,"nx":28,"ny":28,"refTime":"2022-10-26T21:00:00:Z","depth":0,"parameterNumber":1,"parameterNumberName":"U-component_of_WINDS"},"data":[-10.8549,-10.8725,-10.8684,-10.8867,-10.886,-10.8978,-10.9007,-10.9041,-10.9057,-10.9195,-10.9267,-10.9244,-10.9244,-10.9321,-10.9399,-10.9386,-10.9423,-10.9518,-10.9488,-10.9098,-10.9041,-10.8987,-10.8942,-10.9527,-10.9527,-10.9898,-10.9901,-10.9904,-10.8276,-10.8271,-10.8354,-10.8406,-10.8478,-10.8362,-10.8394,-10.8462,-10.8571,-10.8591,-10.8658,-10.8777,-10.8864,-10.883,-10.8908,-10.8992,-10.8942,-10.9017,-10.901,-10.9012,-10.8594,-10.8546,-10.9057,-10.9057,-10.9056,-10.9056,-10.9056,-10.9056,-10.7767,-10.7874,-10.7878,-10.7967,-10.7981,-10.8017,-10.8112,-10.8077,-10.8158,-10.8231,-10.8163,-10.8286,-10.8298,-10.8368,-10.8381,-10.8477,-10.8385,-10.8454,-10.8471,-10.849,-10.8519,-10.7996,-10.8487,-10.8485,-10.8484,-10.8483,-10.8481,0,-10.738,-10.7337,-10.7411,-10.7475,-10.7537,-10.7581,-10.7614,-10.7672,-10.7562,-10.7634,-10.7734,-10.7784,-10.7885,-10.7975,-10.8036,-10.8033,-10.7919,-10.7902,-10.7949,-10.7985,-10.8012,-10.8002,-10.7325,-10.7887,-10.7882,-10.7878,-10.7875,-10.7873,-10.6865,-10.6993,-10.6974,-10.7033,-10.7038,-10.7135,-10.7183,-10.7074,-10.7131,-10.7156,-10.7256,-10.7344,-10.7408,-10.7577,-10.7533,-10.7609,-10.7554,-10.7774,-10.7564,-10.7595,-10.756,-10.7554,-10.7568,-10.7817,-10.7824,-10.783,-10.7835,0,-10.658,-10.6504,-10.6686,-10.6653,-10.6649,-10.6789,-10.6761,-10.6863,-10.6815,-10.6949,-10.6974,-10.6901,-10.7001,-10.692,-10.7017,-10.6973,-10.721,-10.7153,-10.7207,-10.7192,-10.7383,-10.7367,-10.801,-10.809,-10.7481,-10.7486,-10.7491,0,-10.6111,-10.6282,-10.6158,-10.6268,-10.6456,-10.6339,-10.6529,-10.6505,-10.6508,-10.6613,-10.6466,-10.6568,-10.6447,-10.6538,-10.6472,-10.665,-10.6667,-10.6644,-10.6625,-10.6658,-10.6662,-10.6687,-10.666,-10.6572,-10.6569,-10.6566,-10.6564,0,-10.5673,-10.5804,-10.5981,-10.5999,-10.5978,-10.6065,-10.6061,-10.6061,-10.6108,-10.6157,-10.6187,-10.6252,-10.6289,-10.6344,-10.6257,-10.6118,-10.6472,-10.6263,-10.6449,-10.6452,-10.6531,-10.6527,-10.7117,-10.6559,-10.6559,-10.6557,-10.6556,0,-10.528,-10.5328,-10.5596,-10.5575,-10.5613,-10.573,-10.5784,-10.5865,-10.5876,-10.584,-10.5877,-10.5768,-10.5913,-10.5713,-10.5913,-10.5757,-10.5803,-10.5792,-10.5804,-10.5812,-10.559,-10.5936,-10.6504,-10.6561,-10.5822,-10.5816,-10.581,0,-10.4802,-10.5049,-10.4947,-10.5204,-10.5306,-10.5132,-10.526,-10.5272,-10.5234,-10.5317,-10.5274,-10.5369,-10.5201,-10.5219,-10.5329,-10.5289,-10.5493,-10.5259,-10.5385,-10.5391,-10.539,-10.5911,-10.6016,-10.6388,-10.5731,-10.5739,-10.5745,0,-10.442,-10.4387,-10.444,-10.4454,-10.4447,-10.4531,-10.4677,-10.4743,-10.4804,-10.4831,-10.4953,-10.5082,-10.4961,-10.4992,-10.4908,-10.5028,-10.5352,-10.4881,-10.4879,-10.4972,-10.5682,-10.5782,-10.5845,-10.5271,-10.528,-10.5288,-10.5682,0,-10.385,-10.396,-10.4097,-10.4129,-10.418,-10.4333,-10.4239,-10.4305,-10.4219,-10.4172,-10.4348,-10.4333,-10.44,-10.4447,-10.4363,-10.466,-10.4597,-10.4466,-10.4264,-10.4606,-10.4734,-10.4786,-10.4082,-10.4075,-10.407,-10.4065,0,0,-10.3412,-10.3566,-10.3446,-10.3581,-10.3616,-10.3429,-10.3602,-10.3614,-10.3643,-10.3673,-10.3559,-10.3739,-10.3732,-10.3955,-10.4054,-10.408,-10.4126,-10.4008,-10.4443,-10.4486,-10.4525,-10.4663,-10.4719,-10.4056,-10.4054,-10.4052,-10.405,0,-10.3183,-10.3175,-10.3344,-10.3351,-10.3355,-10.3295,-10.3337,-10.3308,-10.3286,-10.3453,-10.3298,-10.3391,-10.3536,-10.3549,-10.3576,-10.3979,-10.3857,-10.4006,-10.4256,-10.4391,-10.4441,-10.4485,-10.4632,-10.4685,-10.4036,-10.4037,-10.4038,0,-10.2791,-10.2768,-10.2838,-10.2904,-10.2904,-10.3012,-10.2776,-10.2899,-10.2978,-10.2766,-10.2934,-10.2914,-10.2923,-10.3143,-10.3238,-10.3137,-10.3618,-10.3447,-10.3479,-10.3488,-10.3615,-10.3675,-10.3728,-10.3024,-10.3021,-10.3018,0,0,-10.2606,-10.2704,-10.2643,-10.2847,-10.2858,-10.277,-10.2816,-10.2733,-10.2742,-10.2747,-10.2716,-10.2732,-10.2815,-10.2872,-10.2944,-10.3199,-10.3193,-10.3326,-10.3374,-10.3413,-10.3444,-10.3581,-10.3641,-10.3006,-10.3006,-10.3006,0,0,-10.2516,-10.2452,-10.2361,-10.2585,-10.2599,-10.2552,-10.2681,-10.2569,-10.2623,-10.2594,-10.246,-10.2458,-10.2662,-10.2647,-10.2499,-10.2871,-10.2673,-10.2706,-10.2873,-10.2932,-10.2979,-10.2978,-10.2255,0,0,0,0,0,-10.2231,-10.2459,-10.2378,-10.2401,-10.2481,-10.2598,-10.2607,-10.25,-10.2362,-10.2468,-10.2424,-10.2287,-10.254,-10.2406,-10.2432,-10.2598,-10.2853,-10.288,-10.2906,-10.3181,-10.3244,-10.3297,0,0,0,0,0,0,-10.2238,-10.2267,-10.2371,-10.2336,-10.2352,-10.2588,-10.2331,-10.2308,-10.2348,-10.232,-10.23,-10.2287,-10.2199,-10.2386,-10.2411,-10.257,-10.2246,-10.2864,-10.2887,-10.2908,-10.3203,-10.3254,-10.3298,0,0,0,0,0,-10.2244,-10.2267,-10.2423,-10.2331,-10.2346,-10.2259,-10.2322,-10.23,-10.2329,-10.226,-10.2242,-10.2245,-10.2206,-10.2219,-10.24,-10.2562,-10.2228,-10.2238,-10.2879,-10.2897,-10.2913,-10.3228,0,0,0,0,0,0,-10.2248,-10.2249,-10.2424,-10.2424,-10.2235,-10.2243,-10.224,-10.2294,-10.2265,-10.225,-10.2197,-10.2175,-10.2214,-10.2223,-10.2234,-10.2565,-10.2214,-10.2224,-10.223,-10.2893,-10.2907,-10.292,0,0,0,0,0,0,-10.2236,-10.2251,-10.2424,-10.2308,-10.2295,-10.223,-10.2228,-10.2364,-10.2267,-10.2202,-10.2183,-10.2188,-10.2197,-10.2227,-10.2235,-10.2453,-10.2202,-10.2212,-10.2218,-10.2223,-10.2904,-10.2916,0,0,0,0,0,0,-10.224,-10.2253,-10.2307,-10.2297,-10.2284,-10.2283,-10.2348,-10.2437,-10.2167,-10.2207,-10.2139,-10.2127,-10.2206,-10.2211,-10.2237,-10.2452,-10.2453,-10.2203,-10.2209,-10.2214,-10.2217,0,0,0,0,0,0,0,-10.2244,-10.2184,-10.242,-10.2288,-10.2276,-10.243,-10.243,-10.243,-10.2164,-10.2153,-10.2142,-10.2132,-10.2149,-10.2159,-10.2169,-10.2451,0,0,-10.2202,-10.2206,0,0,0,0,0,0,0,0,-10.2176,-10.2182,-10.242,-10.242,-10.2421,-10.243,-10.243,-10.243,-10.2162,-10.2153,-10.2145,-10.2136,-10.2151,-10.216,-10.2168,0,0,0,0,0,0,0,0,0,0,0,0,0,0,0,-10.242,-10.242,0,-10.243,-10.243,-10.243,-10.2161,-10.2154,-10.2146,-10.214,-10.2154,-10.2161,-10.2168,0,0,0,0,0,0,0,0,0,0,0,0,0,0,0,0,0,0,0,0,0,0,0,0,0,0,0,0,0,0,0,0,0,0,0,0,0,0,0,0,0,0,0,0,0,0,0,0,0,0,0,0,0,0,0,0,0,0,0,0,0,0,0,0,0,0,0,0,0]}],[{"header":{"parameterUnit":"kt","parameterCategory":2,"dx":1,"dy":1,"la1":30.253999710083008,"la2":30.299108505249023,"lo1":-89.0895004272461,"lo2":-89.04439544677734,"nx":28,"ny":28,"refTime":"2022-10-26T21:00:00:Z","depth":0,"parameterNumber":2,"parameterNumberName":"V-component_of_WINDS"},"data":[0.1216,0.1117,0.114,0.1038,0.1041,0.0974,0.0956,0.0936,0.0926,0.0846,0.0804,0.0815,0.081,0.0763,0.0717,0.0722,0.0699,0.065,0.0663,0.0869,0.0899,0.0927,0.0952,0.0646,0.0645,0.0446,0.0444,0.0443,0.1369,0.1372,0.1325,0.1293,0.1253,0.1315,0.1295,0.1255,0.1192,0.1178,0.1137,0.1068,0.1015,0.1026,0.0978,0.093,0.0954,0.0915,0.0917,0.0914,0.1137,0.1163,0.0897,0.0897,0.0897,0.0897,0.0897,0.0897,0.1655,0.1594,0.1589,0.1537,0.1528,0.1506,0.1451,0.1466,0.1418,0.1372,0.1406,0.1334,0.1321,0.1271,0.1259,0.1202,0.1248,0.121,0.12,0.1189,0.1174,0.1457,0.1195,0.1196,0.1196,0.1197,0.1198,0,0.187,0.1893,0.1848,0.181,0.1773,0.1745,0.1722,0.1689,0.1741,0.1698,0.1637,0.1605,0.1541,0.1484,0.1443,0.1437,0.1491,0.15,0.1473,0.1454,0.1443,0.1445,0.1804,0.1505,0.1508,0.151,0.1511,0.1513,0.2157,0.2084,0.2088,0.2053,0.2046,0.1988,0.1958,0.2011,0.1975,0.1953,0.1895,0.184,0.1798,0.1694,0.1707,0.1657,0.1682,0.1566,0.1674,0.1661,0.1677,0.1679,0.1672,0.1541,0.1538,0.1535,0.1532,0,0.2316,0.2353,0.2245,0.2256,0.2256,0.2175,0.2183,0.2123,0.2143,0.2063,0.2047,0.2075,0.2013,0.2045,0.1979,0.1997,0.1861,0.1889,0.1868,0.1873,0.1771,0.1779,0.1436,0.1393,0.1714,0.1711,0.1709,0,0.2574,0.2474,0.2534,0.2469,0.2362,0.2417,0.2307,0.2313,0.2303,0.224,0.2311,0.225,0.2301,0.2244,0.227,0.2166,0.2153,0.216,0.2167,0.2151,0.215,0.2127,0.2141,0.219,0.2191,0.2193,0.2194,0,0.2816,0.2732,0.2629,0.2614,0.2612,0.2562,0.2558,0.2547,0.2515,0.2479,0.2459,0.2412,0.2385,0.2347,0.2381,0.2454,0.2255,0.2361,0.2261,0.2259,0.221,0.2212,0.1906,0.2196,0.2197,0.2198,0.2198,0,0.3028,0.2994,0.2838,0.2839,0.2814,0.2744,0.2704,0.2652,0.2634,0.2648,0.2619,0.2667,0.258,0.2683,0.2562,0.2647,0.2616,0.2615,0.2608,0.2598,0.2711,0.2529,0.2238,0.2207,0.2595,0.2599,0.2602,0,0.3295,0.3148,0.3194,0.3043,0.2979,0.3064,0.2987,0.2969,0.2981,0.2927,0.2939,0.2874,0.2958,0.2942,0.2879,0.2886,0.2776,0.2902,0.2817,0.2814,0.2817,0.2551,0.2497,0.23,0.2644,0.264,0.2637,0,0.3506,0.3506,0.3475,0.3461,0.3448,0.3393,0.3306,0.3256,0.3217,0.3188,0.3114,0.3026,0.3085,0.3056,0.3089,0.3021,0.2852,0.3092,0.3093,0.3046,0.2669,0.2619,0.2586,0.2889,0.2884,0.288,0.2671,0,0.3815,0.3745,0.3666,0.363,0.3594,0.3501,0.3536,0.3493,0.3531,0.3544,0.3436,0.3425,0.3369,0.334,0.3374,0.3209,0.324,0.3303,0.34,0.3226,0.3158,0.313,0.35,0.3504,0.3506,0.3508,0,0,0.4059,0.396,0.4011,0.3928,0.39,0.3986,0.3884,0.3866,0.3825,0.3803,0.386,0.3731,0.3718,0.3582,0.353,0.3508,0.348,0.3538,0.331,0.3287,0.3267,0.3193,0.3164,0.3513,0.3514,0.3515,0.3516,0,0.4179,0.4171,0.407,0.4055,0.4034,0.4053,0.4029,0.4022,0.4024,0.3919,0.3987,0.3926,0.3819,0.3797,0.3771,0.3558,0.3609,0.3539,0.3413,0.3335,0.3309,0.3287,0.3209,0.318,0.3522,0.3522,0.3521,0,0.4391,0.4388,0.4343,0.4284,0.427,0.42,0.4315,0.4235,0.4184,0.4275,0.4168,0.4165,0.4137,0.4005,0.3946,0.3994,0.3725,0.3815,0.38,0.3792,0.3718,0.3687,0.3659,0.4021,0.4023,0.4024,0,0,0.4488,0.4423,0.4433,0.4312,0.4299,0.4325,0.429,0.4323,0.4299,0.4288,0.4285,0.4257,0.4196,0.4154,0.4098,0.3947,0.3944,0.3876,0.3852,0.3833,0.3814,0.3735,0.3704,0.4031,0.4031,0.4031,0,0,0.4533,0.4541,0.4583,0.4448,0.4424,0.4423,0.4346,0.4397,0.435,0.4363,0.441,0.4405,0.4281,0.4274,0.4353,0.4132,0.423,0.4211,0.4141,0.4111,0.4088,0.409,0.4463,0,0,0,0,0,0.4672,0.4541,0.458,0.4562,0.4485,0.4403,0.4393,0.4431,0.45,0.4439,0.4445,0.4503,0.4327,0.4398,0.4378,0.4287,0.411,0.4096,0.4082,0.3956,0.3925,0.3899,0,0,0,0,0,0,0.4665,0.4643,0.4583,0.4576,0.4559,0.4408,0.4533,0.454,0.4508,0.4521,0.45,0.4502,0.4531,0.4411,0.4392,0.4305,0.447,0.4104,0.4092,0.4081,0.3945,0.392,0.3898,0,0,0,0,0,0.466,0.4643,0.4509,0.4578,0.4563,0.4583,0.4539,0.4545,0.452,0.4528,0.4532,0.4552,0.4527,0.4514,0.44,0.4313,0.4483,0.4476,0.4096,0.4087,0.4079,0.3933,0,0,0,0,0,0,0.4656,0.4647,0.4507,0.4504,0.463,0.4592,0.4588,0.4549,0.453,0.4533,0.4582,0.4593,0.4523,0.4514,0.4503,0.4314,0.4494,0.4486,0.4482,0.4089,0.4082,0.4075,0,0,0,0,0,0,0.4657,0.4644,0.4506,0.4569,0.4574,0.46,0.4597,0.4504,0.4528,0.4586,0.4594,0.4587,0.4538,0.4513,0.4505,0.4359,0.4502,0.4495,0.449,0.4487,0.4083,0.4077,0,0,0,0,0,0,0.4652,0.4641,0.457,0.4573,0.4578,0.4545,0.4519,0.4436,0.4587,0.4585,0.4601,0.4607,0.4535,0.4528,0.4505,0.4362,0.4359,0.4502,0.4497,0.4494,0.4491,0,0,0,0,0,0,0,0.4648,0.4714,0.4526,0.4577,0.4581,0.4475,0.4474,0.4473,0.4588,0.4594,0.4599,0.4605,0.4541,0.4534,0.4526,0.4365,0,0,0.4502,0.4499,0,0,0,0,0,0,0,0,0.4719,0.4715,0.4526,0.4526,0.4525,0.4475,0.4474,0.4473,0.4589,0.4594,0.4598,0.4603,0.4539,0.4533,0.4527,0,0,0,0,0,0,0,0,0,0,0,0,0,0,0,0.4526,0.4526,0,0.4475,0.4474,0.4473,0.459,0.4594,0.4597,0.4601,0.4538,0.4533,0.4527,0,0,0,0,0,0,0,0,0,0,0,0,0,0,0,0,0,0,0,0,0,0,0,0,0,0,0,0,0,0,0,0,0,0,0,0,0,0,0,0,0,0,0,0,0,0,0,0,0,0,0,0,0,0,0,0,0,0,0,0,0,0,0,0,0,0,0,0,0]}]]]